Regional Weather Roundup
Issued by NWS Charleston, WV

Home | Current Version | Previous Version | Text Only | Print | Product List | Glossary Off
Versions: 1 2 3 4 5 6 7 8 9 10 11 12 13 14 15 16 17 18 19 20 21 22 23 24 25 26 27 28

000
ASUS41 KRLX 181710
RWRRLX
West Virginia Regional Weather Roundup
National Weather Service Charleston WV
1200 PM EST SUN FEB 18 2018

Note: "fair" indicates few or no clouds below 12,000 feet with no
significant weather and/or obstructions to visibility.

WVZ003-181800-
Northern Panhandle of West Virginia

CITY           SKY/WX    TMP DP  RH WIND       PRES   REMARKS
WHEELING         N/A     35  24  64 CALM      30.36R
$$

WVZ009-181800-
Northwest West Virginia

CITY           SKY/WX    TMP DP  RH WIND       PRES   REMARKS
PARKERSBURG    CLOUDY    37  25  61 S5        30.43R
$$

WVZ006-181800-
Western West Virginia

CITY           SKY/WX    TMP DP  RH WIND       PRES   REMARKS
HUNTINGTON     PTSUNNY   43  31  62 VRB6      30.38F
$$

WVZ015-181800-
West Central West Virginia

CITY           SKY/WX    TMP DP  RH WIND       PRES   REMARKS
CHARLESTON     PTSUNNY   42  30  62 CALM      30.39F
$$

WVZ022-031-181800-
North Central West Virginia

CITY           SKY/WX    TMP DP  RH WIND       PRES   REMARKS
CLARKSBURG     CLOUDY    38  28  67 CALM      30.38R
MORGANTOWN     CLOUDY    37  25  61 CALM      30.38R
$$

WVZ025-035-042-045-181800-
Southern West Virginia

CITY           SKY/WX    TMP DP  RH WIND       PRES   REMARKS
BECKLEY          N/A     37  28  70 E3        30.35S
LOGAN            N/A     43  30  61 CALM      30.35F
BLUEFIELD        N/A     39  26  59 MISG      30.33F
LEWISBURG        N/A     39  27  61 SW3       30.37F
$$

WVZ047-181800-
Northern Mountains of West Virginia

CITY           SKY/WX    TMP DP  RH WIND       PRES   REMARKS
ELKINS         CLOUDY    35  27  72 SW3       30.36S
$$

WVZ052-181800-
Eastern Panhandle of West Virginia

CITY           SKY/WX    TMP DP  RH WIND       PRES   REMARKS
MARTINSBURG    PTSUNNY   44  31  60 NW6       30.39R
PETERSBURG     PTSUNNY   43  27  52 NE3       30.39S
$$




USA.gov is the U.S. government's official web portal to all federal, state and local government web resources and services.